Weather in Korshunovka

Russia / Tambov Oblast     53°06′40″N   42°03′53″E
temp.,
°C
wind,
m/s
gust,
m/s
humid.,
%
clouds,
%
prec.,
mm/h
press.,
hPa
HPBL,
m
19 september, sun
sun1900:00+8e41057100 0.0 1023377
03:00+7e5115995 0.0 1022394
06:00+6ese51068100 0.3 1022437
09:00+6ese51180100 1.3 1022432
12:00+7ese61185100 1.1 1022455
15:00+9se71270100 1.3 1021660
18:00+8ese61383100 1.1 1020550
21:00+8ese71585100 2.1 1019548
20 september, mon
mon2000:00+7ese101887100 3.6 1017657
03:00+7ese101988100 10.2 1016746
06:00+7ese101988100 5.8 1015766
09:00+6ese101888100 7.2 1015798
12:00+6ese91785100 0.4 1015763
15:00+7ese91779100 0.8 1015785
18:00+8ese91780100 0.1 1015805
21:00+8ese91683100 0.4 1015764
21 september, tue
tue2100:00+8se71491100 6.0 1015674
03:00+8ese6129189 6.0 1014425
06:00+8ese71293100 0.2 1014348
09:00+8ese61192100 1.1 1014290
12:00+9se478885 0.2 1014472
15:00+13ese3677100 0.2 1013458
18:00+11nne2288100 0.1 101240
21:00+11ne1194100 0.7 101214
22 september, wed
wed2200:00+10w119646 0.6 101212
03:00+10wsw2394100 0.8 101370
06:00+9wnw229541 0.0 101353
09:00+11sw118266 0.1 1014231
12:00+14sse226138 0.2 1014951
15:00+15s125597 0.4 10151023
18:00+13nw116995 0.1 101512
21:00+11nne227615 0.1 101611
23 september, thu
thu2300:00+11e348160 0.0 101699
03:00+11e2492100 0.6 1015121
06:00+10ese249394 0.9 1015114
09:00+14sse357620 1.4 1015360
12:00+15sse3468100 0.1 1015654
15:00+16ssw2357100 0.1 1014826
18:00+13e2264100 0.0 101415
21:00+13ese51173100 0.0 1014388